STARLINK-33813, 63585

Orbit data source: Space-Track

STARLINK-33813, 63585 is a payload satellite owned by SpaceX/Seattle (US) in LEO that was launched on Mon, 14 Apr 2025 UTC via an FALCON 9 launch vehicle from the Air Force Eastern Test Range (AFETR). Payload-class satellites include a variety of spacecraft equipped with specific instruments for various scientific and technological missions. These include communications satellites like Starlink; space stations such as the ISS; scientific satellites like the Hubble; Earth observation satellites from companies like Planet Labs, Umbra, and HawkEye 360; GPS; miniature CubeSats for education and research; and military/defense satellites.

Loading next visibility...
Identifier
63585, 2025-076S
Orbit
LEO
Last TLE update
10 hours ago
Origin
Manufacturer
SpaceX/Seattle
Mission
Operational spacecraft
Bus & Motor
STARLINK V2MO, Unknown motor
Mass
575 kg wet, ~530 kg dry
Launch date (UTC)
2025-04-14 (4 weeks ago)
Launch vehicle
FALCON 9
Launch site
Air Force Eastern Test Range (AFETR)
Object type
Payload
Rocket body
Debris
Shape & HBR
Unknown
Radar Cross Section
Large (>1 m²)

Expand to show TLE details & history

TLE from 10 hours ago
0 STARLINK-33813
1 63585U 25076S   25128.91668981 -.01484953  00000-0 -22121-1 0  9998
2 63585  42.9997 247.6375 0001508 272.5458 120.0484 15.57378366  4969
Epoch: 2025-05-08T22:00Z
Definitive object data (Epoch: 2025-05-08T22:00:01.999Z)
Latitude
21.63545°
Longitude
75.67146°
Altitude
395.241 km
Speed
7.677 km/s
True Right ascension
18h 10m 38s
True Declination
21° 30' 42"
Sunlit
Object was in full shadow at TLE epoch
Visualization TLE readout
Latitude
-39.08582°
Longitude
-11.91831°
Altitude
409.918 km
Speed
7.666 km/s
Apparent Right ascension
08h 39m 17s
Apparent Declination
-57° 34' 57"
Sunlit
Object is in full shadow
Visualization observer readout
Local Sidereal Time
16:30:21
Azimuth
224.234° SW
Elevation
-47.158°
Doppler factor
1
Orbital elements
Apogee altitude
398.24 km
Perigee altitude
396.196 km
Semi-major axis
6,775.355 km
Eccentricity
0.0001508
Inclination
42.9997°
RAAN
247.6375°
Arg. of periapsis
272.5458°
True anomaly
120.06336°
Mean anomaly
120.0484°
Eccentric anomaly
120.05588°
Mean motion
3.89175 °/min
BSTAR
-0.022121
Orbital period
92.5 mins
Loading maneuver chart data...
Loading SW <> Apogee altitude chart data...
Loading historical data...
Loading historical data...
Loading historical data...
Loading historical data...
Loading historical data...
Loading historical data...
Loading historical data...

STARLINK-33813 Visibility forecast

Observer location: undefined°, undefined°

Span
Click to sort rows by Start time (UTC) header in descending order
Start Az.
Max El. time (UTC)
Max El. Az.
Max El.
End time (UTC)
End Az.
5 mins2025-05-09 11:58:12.292Z238.277° WSW2025-05-09 12:00:12.292Z179.917° S42.654°2025-05-09 12:03:12.292Z75.402° E
4 mins2025-05-09 13:36:12.292Z295.251° NW2025-05-09 13:37:12.292Z331.454° NNW35.678°2025-05-09 13:40:12.292Z69.047° E
4 mins2025-05-09 15:13:12.292Z297.466° NW2025-05-09 15:15:12.292Z45.869° ENE40.566°2025-05-09 15:17:12.292Z91.923° ESE
4 mins2025-05-09 16:50:12.292Z262.279° W2025-05-09 16:52:12.292Z197.093° SSW28.676°2025-05-09 16:54:12.292Z148.601° SSE
|